Location: Avully
(45.9633°N, 6.0228°E)
Time: 05:09:34
(UTC+00:00)

Cosmos 724 - Pass Details

Date: 23 May 2024
Orbit: 864 x 930 km, 65.6° (Epoch: 19 June)

Event Time Altitude Azimuth Distance (km) Brightness Sun altitude
Exits shadow 00:12:03 42° 230° (SW) 1,242 4.7 -22.8°
Maximum altitude 00:14:08 75° 306° (NW) 910 4.3 -22.7°
Drops below altitude 10° 00:19:59 10° 33° (NNE) 2,524 7.6 -22.5°
Sets 00:22:28 0° 35° (NE) 3,460 8.5 -22.4°
